Weather History for KDLN - January, 2013

Change the Weather History Date:

Wednesday, January 16, 2013

  Actual Average Record
Temperature  
Mean Temperature 18 °F 23 °F  
Max Temperature 27 °F 33 °F 52 °F (1974)
Min Temperature 8 °F 13 °F -24 °F (1957)
Degree Days  
Heating Degree Days 47    
Month to date heating degree days 792  
Since 1 July heating degree days 3850  
Cooling Degree Days 0    
Month to date cooling degree days 0  
Year to date cooling degree days 0  
Moisture  
Dew Point 8 °F    
Average Humidity 68    
Maximum Humidity 80    
Minimum Humidity 55    
Precipitation  
Precipitation 0.00 in 0.01 in 0.16 in (1952)
Month to date precipitation 0.20 0.15  
Year to date precipitation 0.20 0.15  
Snow  
Snow 0.00 in - - ()
Snow Depth 5.00 in    
Sea Level Pressure  
Sea Level Pressure 30.59 in    
Wind  
Wind Speed 17 mph (SSW)    
Max Wind Speed 31 mph    
Max Gust Speed 35 mph    
T = Trace of Precipitation, MM = Missing Value Source: NWS Daily Summary

Daily Weather History Graph

Daily Weather History Graph

Search for Another Location

Airport or City:

Trip Planner

Search our weather history database for the weather conditions in past years. The results will help you decide how hot, cold, wet, or windy it might be!

Date:

Astronomy

Jan. 16, 2013 Rise Set
Actual Time 8:04 AM MST 5:15 PM MST
Civil Twilight 7:32 AM MST 5:48 PM MST
Nautical Twilight 6:55 AM MST 6:25 PM MST
Astronomical Twilight 6:20 AM MST 7:00 PM MST
Moon 10:25 AM MST (1/16) 11:30 PM MST (1/16)
Length of Visible Light 10h 16m
Length of Day
9h 10m
Waxing Crescent, 29% of the Moon is Illuminated
Jan 16
Waxing Crescent
Jan 18
First Quarter
Jan 26
Full
Feb 3
Last Quarter
Feb 10
New

Hourly Weather History & Observations

Time (MST) Temp. Windchill Dew Point Humidity Pressure Visibility Wind Dir Wind Speed Gust Speed Precip Events Conditions
12:53 AM 17.1 °F 4.3 °F 8.1 °F 68% 30.56 in - South 11.5 mph - N/A   Clear
1:53 AM 8.1 °F -3.2 °F 3.9 °F 83% 30.61 in - SW 6.9 mph - N/A   Clear
2:53 AM 12.9 °F 3.8 °F 6.1 °F 74% 30.60 in - South 5.8 mph - N/A   Clear
3:53 AM 10.9 °F - 3.9 °F 73% 30.59 in - Calm Calm - N/A   Clear
4:53 AM 12.9 °F -0.9 °F 5.0 °F 71% 30.59 in - SW 11.5 mph - N/A   Clear
5:53 AM 10.0 °F -2.9 °F 3.0 °F 73% 30.61 in - SSW 9.2 mph - N/A   Clear
6:53 AM 17.1 °F -0.6 °F 7.0 °F 65% 30.57 in - SW 23.0 mph - N/A   Clear
7:53 AM 17.1 °F -2.0 °F 7.0 °F 65% 30.60 in - SW 27.6 mph 31.1 mph N/A   Clear
8:53 AM 15.1 °F -2.5 °F 5.0 °F 64% 30.59 in - SW 20.7 mph - N/A   Clear
9:53 AM 18.0 °F 2.6 °F 8.1 °F 65% 30.58 in - SW 17.3 mph - N/A   Clear
10:53 AM 19.0 °F 5.0 °F 10.0 °F 68% 30.57 in - SW 15.0 mph - N/A   Clear
1:53 PM 25.0 °F 10.6 °F 12.9 °F 60% 30.54 in - SSW 20.7 mph - N/A   Clear
2:53 PM 25.0 °F 10.6 °F 12.9 °F 60% 30.54 in - SSW 20.7 mph - N/A   Clear
3:53 PM 26.1 °F 16.2 °F 14.0 °F 60% 30.56 in - South 10.4 mph - N/A   Clear
4:53 PM 25.0 °F 11.7 °F 12.9 °F 60% 30.57 in - SSW 17.3 mph - N/A   Clear
5:53 PM 21.9 °F 8.7 °F 10.9 °F 63% 30.61 in - SSW 15.0 mph - N/A   Clear
6:53 PM 21.0 °F 5.7 °F 10.0 °F 63% 30.59 in - SSW 19.6 mph - N/A   Clear
7:53 PM 21.9 °F 7.3 °F 9.0 °F 58% 30.61 in - SSW 18.4 mph - N/A   Clear
8:53 PM 19.9 °F 2.5 °F 9.0 °F 62% 30.62 in - SW 25.3 mph - N/A   Clear
9:53 PM 19.9 °F 2.8 °F 8.1 °F 60% 30.62 in - SSW 24.2 mph - N/A   Clear
10:53 PM 19.0 °F 2.7 °F 8.1 °F 62% 30.62 in - SSW 20.7 mph 25.3 mph N/A   Clear
11:53 PM 17.1 °F 1.0 °F 7.0 °F 65% 30.61 in - SSW 18.4 mph - N/A   Clear